Flag for U.S.A. Weather past 2 weeks in Madison, Wisconsin, U.S.A.

Now
63 °F

Mostly cloudy.


Feels Like: 63 °F
Forecast: 49 / 63 °F
Wind: No wind

Location: Dane County Regional-Truax Field

Current Time: Sep 20, 2014 at 11:28:34 PM

Latest Report: Sep 20, 2014 at 10:53 PM


Visibility: 10 mi

Pressure: 29.71 "Hg

Humidity: 87%

Dew point: 59 °F

Location of MadisonLocation

Historic Weather in Madison — Graph

°F

Madison temperature yesterday

Maximum temperature yesterday: 74 °F (at 3:53 PM)
Minimum temperature yesterday: 51 °F (at 1:53 AM)
Average temperature yesterday: 64 °F

Past Weeks' High & Low Weather Summary

 TemperatureHumidityPressure
High78 °F (Sep 7, 2:53 PM)97% (Sep 12, 11:53 PM)30.41 "Hg (Sep 12, 11:53 PM)
Low38 °F (Sep 12, 11:53 PM)31% (Sep 7, 2:53 PM)29.48 "Hg (Sep 10, 9:53 AM)
Average58 °F75%30.09 "Hg
* Reported Sep 5 9:53 PM — Sep 20 9:53 PM, Madison, Weather by CustomWeather, © 2014

Note: Actual official high and low records may vary slightly from our data, if they occured in-between our weather recording intervals... More about our weather records

Advertising

Madison weather history for previous 24 hours

 ConditionsComfort  
Time TempWeatherWind HumidityBarometerVisibility
9:53 PM
Sep 20
67 °FMostly cloudy.No wind85%29.71 "Hg10 mi
8:53 PM69 °FPassing clouds.5 mph79%29.72 "Hg10 mi
7:53 PM69 °FScattered clouds.3 mph79%29.73 "Hg10 mi
6:53 PM73 °FPartly sunny.No wind69%29.74 "Hg10 mi
5:53 PM75 °FPartly sunny.7 mph62%29.73 "Hg10 mi
4:53 PM76 °FPartly sunny.7 mph60%29.73 "Hg10 mi
3:53 PM77 °FBroken clouds.5 mph58%29.74 "Hg10 mi
2:53 PM75 °FBroken clouds.8 mph66%29.75 "Hg10 mi
1:53 PM72 °FLight rain. More clouds than sun.6 mph76%29.77 "Hg10 mi
12:53 PM74 °FLight rain. More clouds than sun.6 mph69%29.80 "Hg10 mi
7:59 AM66 °FMore clouds than sun.5 mph87%29.82 "Hg7 mi
6:53 AM65 °FMostly cloudy.10 mph87%29.76 "Hg7 mi
5:53 AM66 °FMostly cloudy.10 mph84%29.79 "Hg10 mi
4:53 AM65 °FLight rain. Passing clouds.7 mph87%29.82 "Hg8 mi
3:53 AM66 °FLight rain. Overcast.7 mph81%29.85 "Hg9 mi
2:53 AM66 °FMostly cloudy.9 mph73%29.82 "Hg10 mi
1:53 AM66 °FClear.10 mph68%29.80 "Hg10 mi
12:53 AM66 °FClear.10 mph65%29.84 "Hg10 mi
11:53 PM
Sep 19
67 °FClear.14 mph63%29.85 "Hg10 mi
Weather by CustomWeather, © 2014

See weather overviewHow to use our weather pages